owner,sensor,date,latitude,longitude,air_temperature,qcFlag 
COMPS,ioos:station:USF.COMPS:TAR:1,2011-04-01T01:00:00Z,28.1560,-82.7580,20.06,1111122 
COMPS,ioos:station:USF.COMPS:TAR:1,2011-04-01T01:06:00Z,28.1560,-82.7580,20.06,1111122 
COMPS,ioos:station:USF.COMPS:TAR:1,2011-04-01T01:12:00Z,28.1560,-82.7580,20.06,1111122 
COMPS,ioos:station:USF.COMPS:TAR:1,2011-04-01T01:18:00Z,28.1560,-82.7580,19.93,1111122 
COMPS,ioos:station:USF.COMPS:TAR:1,2011-04-01T01:24:00Z,28.1560,-82.7580,20.01,1111122 
COMPS,ioos:station:USF.COMPS:TAR:1,2011-04-01T01:30:00Z,28.1560,-82.7580,19.92,1111122 
COMPS,ioos:station:USF.COMPS:TAR:1,2011-04-01T01:36:00Z,28.1560,-82.7580,20.02,1111122 
COMPS,ioos:station:USF.COMPS:TAR:1,2011-04-01T01:42:00Z,28.1560,-82.7580,19.87,1111122 
COMPS,ioos:station:USF.COMPS:TAR:1,2011-04-01T01:48:00Z,28.1560,-82.7580,19.67,1111122 
COMPS,ioos:station:USF.COMPS:TAR:1,2011-04-01T01:54:00Z,28.1560,-82.7580,19.61,1111122 
COMPS,ioos:station:USF.COMPS:TAR:1,2011-04-01T05:00:00Z,28.1560,-82.7580,18.72,1111122 
COMPS,ioos:station:USF.COMPS:TAR:1,2011-04-01T05:06:00Z,28.1560,-82.7580,18.72,1111122 
COMPS,ioos:station:USF.COMPS:TAR:1,2011-04-01T05:12:00Z,28.1560,-82.7580,18.63,1111122 
COMPS,ioos:station:USF.COMPS:TAR:1,2011-04-01T05:18:00Z,28.1560,-82.7580,18.58,1111122 
COMPS,ioos:station:USF.COMPS:TAR:1,2011-04-01T05:24:00Z,28.1560,-82.7580,18.59,1111122 
COMPS,ioos:station:USF.COMPS:TAR:1,2011-04-01T05:30:00Z,28.1560,-82.7580,18.48,1111122 
COMPS,ioos:station:USF.COMPS:TAR:1,2011-04-01T05:36:00Z,28.1560,-82.7580,18.46,1111122 
COMPS,ioos:station:USF.COMPS:TAR:1,2011-04-01T05:42:00Z,28.1560,-82.7580,18.46,1111122 
COMPS,ioos:station:USF.COMPS:TAR:1,2011-04-01T05:48:00Z,28.1560,-82.7580,18.45,1111122 
COMPS,ioos:station:USF.COMPS:TAR:1,2011-04-01T05:54:00Z,28.1560,-82.7580,18.38,1111122 
COMPS,ioos:station:USF.COMPS:TAR:1,2011-04-01T06:00:00Z,28.1560,-82.7580,18.34,1111122 
COMPS,ioos:station:USF.COMPS:TAR:1,2011-04-01T06:06:00Z,28.1560,-82.7580,18.33,1111122 
COMPS,ioos:station:USF.COMPS:TAR:1,2011-04-01T06:12:00Z,28.1560,-82.7580,18.35,1111122 
COMPS,ioos:station:USF.COMPS:TAR:1,2011-04-01T06:18:00Z,28.1560,-82.7580,18.47,1111122 
COMPS,ioos:station:USF.COMPS:TAR:1,2011-04-01T06:24:00Z,28.1560,-82.7580,18.64,1111122 
COMPS,ioos:station:USF.COMPS:TAR:1,2011-04-01T06:30:00Z,28.1560,-82.7580,18.61,1111122 
COMPS,ioos:station:USF.COMPS:TAR:1,2011-04-01T06:36:00Z,28.1560,-82.7580,18.69,1111122 
COMPS,ioos:station:USF.COMPS:TAR:1,2011-04-01T06:42:00Z,28.1560,-82.7580,18.74,1111122 
COMPS,ioos:station:USF.COMPS:TAR:1,2011-04-01T06:48:00Z,28.1560,-82.7580,18.74,1111122 
COMPS,ioos:station:USF.COMPS:TAR:1,2011-04-01T06:54:00Z,28.1560,-82.7580,18.84,1111122 
COMPS,ioos:station:USF.COMPS:TAR:1,2011-04-01T09:00:00Z,28.1560,-82.7580,18.69,1111122 
COMPS,ioos:station:USF.COMPS:TAR:1,2011-04-01T09:06:00Z,28.1560,-82.7580,18.7,1111122 
COMPS,ioos:station:USF.COMPS:TAR:1,2011-04-01T09:12:00Z,28.1560,-82.7580,18.7,1111122 
COMPS,ioos:station:USF.COMPS:TAR:1,2011-04-01T09:18:00Z,28.1560,-82.7580,18.72,1111122 
COMPS,ioos:station:USF.COMPS:TAR:1,2011-04-01T09:24:00Z,28.1560,-82.7580,18.77,1111122 
COMPS,ioos:station:USF.COMPS:TAR:1,2011-04-01T09:30:00Z,28.1560,-82.7580,18.63,1111122 
COMPS,ioos:station:USF.COMPS:TAR:1,2011-04-01T09:36:00Z,28.1560,-82.7580,18.53,1111122 
COMPS,ioos:station:USF.COMPS:TAR:1,2011-04-01T09:42:00Z,28.1560,-82.7580,18.45,1111122 
COMPS,ioos:station:USF.COMPS:TAR:1,2011-04-01T09:48:00Z,28.1560,-82.7580,18.32,1111122 
COMPS,ioos:station:USF.COMPS:TAR:1,2011-04-01T09:54:00Z,28.1560,-82.7580,18.28,1111122 
COMPS,ioos:station:USF.COMPS:TAR:1,2011-04-01T12:00:00Z,28.1560,-82.7580,18.76,1111122 
COMPS,ioos:station:USF.COMPS:TAR:1,2011-04-01T12:06:00Z,28.1560,-82.7580,19.24,1111122 
COMPS,ioos:station:USF.COMPS:TAR:1,2011-04-01T12:12:00Z,28.1560,-82.7580,19.3,1111122 
COMPS,ioos:station:USF.COMPS:TAR:1,2011-04-01T12:18:00Z,28.1560,-82.7580,19.4,1111122 
COMPS,ioos:station:USF.COMPS:TAR:1,2011-04-01T12:24:00Z,28.1560,-82.7580,19.67,1111122 
COMPS,ioos:station:USF.COMPS:TAR:1,2011-04-01T12:30:00Z,28.1560,-82.7580,20.07,1111122 
COMPS,ioos:station:USF.COMPS:TAR:1,2011-04-01T12:36:00Z,28.1560,-82.7580,20.37,1111122 
COMPS,ioos:station:USF.COMPS:TAR:1,2011-04-01T12:42:00Z,28.1560,-82.7580,20.78,1111122 
COMPS,ioos:station:USF.COMPS:TAR:1,2011-04-01T12:48:00Z,28.1560,-82.7580,20.9,1111122 
COMPS,ioos:station:USF.COMPS:TAR:1,2011-04-01T12:54:00Z,28.1560,-82.7580,21.11,1111122 
COMPS,ioos:station:USF.COMPS:TAR:1,2011-04-01T16:00:00Z,28.1560,-82.7580,27.59,1111122 
COMPS,ioos:station:USF.COMPS:TAR:1,2011-04-01T16:06:00Z,28.1560,-82.7580,27.61,1111122 
COMPS,ioos:station:USF.COMPS:TAR:1,2011-04-01T16:12:00Z,28.1560,-82.7580,27.26,1111122 
COMPS,ioos:station:USF.COMPS:TAR:1,2011-04-01T16:18:00Z,28.1560,-82.7580,26.76,1111122 
COMPS,ioos:station:USF.COMPS:TAR:1,2011-04-01T16:24:00Z,28.1560,-82.7580,27.06,1111122 
COMPS,ioos:station:USF.COMPS:TAR:1,2011-04-01T16:30:00Z,28.1560,-82.7580,27.19,1111122 
COMPS,ioos:station:USF.COMPS:TAR:1,2011-04-01T16:36:00Z,28.1560,-82.7580,27.18,1111122 
COMPS,ioos:station:USF.COMPS:TAR:1,2011-04-01T16:42:00Z,28.1560,-82.7580,27.21,1111122 
COMPS,ioos:station:USF.COMPS:TAR:1,2011-04-01T16:48:00Z,28.1560,-82.7580,27.21,1111122 
COMPS,ioos:station:USF.COMPS:TAR:1,2011-04-01T16:54:00Z,28.1560,-82.7580,26.96,1111122 
COMPS,ioos:station:USF.COMPS:TAR:1,2011-04-01T18:00:00Z,28.1560,-82.7580,26.42,1111122 
COMPS,ioos:station:USF.COMPS:TAR:1,2011-04-01T18:06:00Z,28.1560,-82.7580,26.31,1111122 
COMPS,ioos:station:USF.COMPS:TAR:1,2011-04-01T18:12:00Z,28.1560,-82.7580,26.21,1111122 
COMPS,ioos:station:USF.COMPS:TAR:1,2011-04-01T18:18:00Z,28.1560,-82.7580,26.21,1111122 
COMPS,ioos:station:USF.COMPS:TAR:1,2011-04-01T18:24:00Z,28.1560,-82.7580,26.3,1111122 
COMPS,ioos:station:USF.COMPS:TAR:1,2011-04-01T18:30:00Z,28.1560,-82.7580,26.41,1111122 
COMPS,ioos:station:USF.COMPS:TAR:1,2011-04-01T18:36:00Z,28.1560,-82.7580,26.19,1111122 
COMPS,ioos:station:USF.COMPS:TAR:1,2011-04-01T18:42:00Z,28.1560,-82.7580,26.19,1111122 
COMPS,ioos:station:USF.COMPS:TAR:1,2011-04-01T18:48:00Z,28.1560,-82.7580,26.25,1111122 
COMPS,ioos:station:USF.COMPS:TAR:1,2011-04-01T18:54:00Z,28.1560,-82.7580,26.2,1111122 
COMPS,ioos:station:USF.COMPS:TAR:1,2011-04-01T21:00:00Z,28.1560,-82.7580,25.91,1111122 
COMPS,ioos:station:USF.COMPS:TAR:1,2011-04-01T21:06:00Z,28.1560,-82.7580,25.95,1111122 
COMPS,ioos:station:USF.COMPS:TAR:1,2011-04-01T21:12:00Z,28.1560,-82.7580,25.82,1111122 
COMPS,ioos:station:USF.COMPS:TAR:1,2011-04-01T21:18:00Z,28.1560,-82.7580,25.48,1111122 
COMPS,ioos:station:USF.COMPS:TAR:1,2011-04-01T21:24:00Z,28.1560,-82.7580,25.35,1111122 
COMPS,ioos:station:USF.COMPS:TAR:1,2011-04-01T21:30:00Z,28.1560,-82.7580,25.34,1111122 
COMPS,ioos:station:USF.COMPS:TAR:1,2011-04-01T21:36:00Z,28.1560,-82.7580,25.35,1111122 
COMPS,ioos:station:USF.COMPS:TAR:1,2011-04-01T21:42:00Z,28.1560,-82.7580,25.16,1111122 
COMPS,ioos:station:USF.COMPS:TAR:1,2011-04-01T21:48:00Z,28.1560,-82.7580,25.07,1111122 
COMPS,ioos:station:USF.COMPS:TAR:1,2011-04-01T21:54:00Z,28.1560,-82.7580,25.0,1111122 
COMPS,ioos:station:USF.COMPS:TAR:1,2011-04-02T00:00:00Z,28.1560,-82.7580,20.28,1111122 
COMPS,ioos:station:USF.COMPS:TAR:1,2011-04-02T00:06:00Z,28.1560,-82.7580,20.09,1111122 
COMPS,ioos:station:USF.COMPS:TAR:1,2011-04-02T00:12:00Z,28.1560,-82.7580,19.99,1111122 
COMPS,ioos:station:USF.COMPS:TAR:1,2011-04-02T00:18:00Z,28.1560,-82.7580,19.86,1111122 
COMPS,ioos:station:USF.COMPS:TAR:1,2011-04-02T00:24:00Z,28.1560,-82.7580,19.85,1111122 
COMPS,ioos:station:USF.COMPS:TAR:1,2011-04-02T00:30:00Z,28.1560,-82.7580,19.65,1111122 
COMPS,ioos:station:USF.COMPS:TAR:1,2011-04-02T00:36:00Z,28.1560,-82.7580,19.53,1111122 
COMPS,ioos:station:USF.COMPS:TAR:1,2011-04-02T00:42:00Z,28.1560,-82.7580,19.48,1111122 
COMPS,ioos:station:USF.COMPS:TAR:1,2011-04-02T00:48:00Z,28.1560,-82.7580,19.38,1111122 
COMPS,ioos:station:USF.COMPS:TAR:1,2011-04-02T00:54:00Z,28.1560,-82.7580,19.32,1111122 
COMPS,ioos:station:USF.COMPS:TAR:1,2011-04-02T03:00:00Z,28.1560,-82.7580,18.53,1111122 
COMPS,ioos:station:USF.COMPS:TAR:1,2011-04-02T03:06:00Z,28.1560,-82.7580,18.27,1111122 
COMPS,ioos:station:USF.COMPS:TAR:1,2011-04-02T03:12:00Z,28.1560,-82.7580,18.08,1111122 
COMPS,ioos:station:USF.COMPS:TAR:1,2011-04-02T03:18:00Z,28.1560,-82.7580,17.92,1111122 
COMPS,ioos:station:USF.COMPS:TAR:1,2011-04-02T03:24:00Z,28.1560,-82.7580,17.89,1111122 
COMPS,ioos:station:USF.COMPS:TAR:1,2011-04-02T03:30:00Z,28.1560,-82.7580,17.79,1111122 
COMPS,ioos:station:USF.COMPS:TAR:1,2011-04-02T03:36:00Z,28.1560,-82.7580,17.82,1111122 
COMPS,ioos:station:USF.COMPS:TAR:1,2011-04-02T03:42:00Z,28.1560,-82.7580,18.02,1111122 
COMPS,ioos:station:USF.COMPS:TAR:1,2011-04-02T03:48:00Z,28.1560,-82.7580,18.17,1111122 
COMPS,ioos:station:USF.COMPS:TAR:1,2011-04-02T03:54:00Z,28.1560,-82.7580,18.19,1111122 
COMPS,ioos:station:USF.COMPS:TAR:1,2011-04-02T06:00:00Z,28.1560,-82.7580,16.87,1111122 
COMPS,ioos:station:USF.COMPS:TAR:1,2011-04-02T06:06:00Z,28.1560,-82.7580,16.82,1111122 
COMPS,ioos:station:USF.COMPS:TAR:1,2011-04-02T06:12:00Z,28.1560,-82.7580,16.84,1111122 
COMPS,ioos:station:USF.COMPS:TAR:1,2011-04-02T06:18:00Z,28.1560,-82.7580,16.97,1111122 
COMPS,ioos:station:USF.COMPS:TAR:1,2011-04-02T06:24:00Z,28.1560,-82.7580,16.99,1111122 
COMPS,ioos:station:USF.COMPS:TAR:1,2011-04-02T06:30:00Z,28.1560,-82.7580,16.92,1111122 
COMPS,ioos:station:USF.COMPS:TAR:1,2011-04-02T06:36:00Z,28.1560,-82.7580,16.84,1111122 
COMPS,ioos:station:USF.COMPS:TAR:1,2011-04-02T06:42:00Z,28.1560,-82.7580,16.84,1111122 
COMPS,ioos:station:USF.COMPS:TAR:1,2011-04-02T06:48:00Z,28.1560,-82.7580,16.82,1111122 
COMPS,ioos:station:USF.COMPS:TAR:1,2011-04-02T06:54:00Z,28.1560,-82.7580,16.71,1111122 
COMPS,ioos:station:USF.COMPS:TAR:1,2011-04-02T09:00:00Z,28.1560,-82.7580,16.3,1111122 
COMPS,ioos:station:USF.COMPS:TAR:1,2011-04-02T09:06:00Z,28.1560,-82.7580,16.3,1111122 
COMPS,ioos:station:USF.COMPS:TAR:1,2011-04-02T09:12:00Z,28.1560,-82.7580,16.3,1111122 
COMPS,ioos:station:USF.COMPS:TAR:1,2011-04-02T09:18:00Z,28.1560,-82.7580,16.3,1111122 
COMPS,ioos:station:USF.COMPS:TAR:1,2011-04-02T09:24:00Z,28.1560,-82.7580,16.35,1111122 
COMPS,ioos:station:USF.COMPS:TAR:1,2011-04-02T09:30:00Z,28.1560,-82.7580,16.31,1111122 
COMPS,ioos:station:USF.COMPS:TAR:1,2011-04-02T09:36:00Z,28.1560,-82.7580,16.43,1111122 
COMPS,ioos:station:USF.COMPS:TAR:1,2011-04-02T09:42:00Z,28.1560,-82.7580,16.32,1111122 
COMPS,ioos:station:USF.COMPS:TAR:1,2011-04-02T09:48:00Z,28.1560,-82.7580,16.24,1111122 
COMPS,ioos:station:USF.COMPS:TAR:1,2011-04-02T09:54:00Z,28.1560,-82.7580,16.13,1111122 
COMPS,ioos:station:USF.COMPS:TAR:1,2011-04-02T12:00:00Z,28.1560,-82.7580,18.28,1111122 
COMPS,ioos:station:USF.COMPS:TAR:1,2011-04-02T12:06:00Z,28.1560,-82.7580,19.13,1111122 
COMPS,ioos:station:USF.COMPS:TAR:1,2011-04-02T12:12:00Z,28.1560,-82.7580,19.84,1111122 
COMPS,ioos:station:USF.COMPS:TAR:1,2011-04-02T12:18:00Z,28.1560,-82.7580,20.12,1111122 
COMPS,ioos:station:USF.COMPS:TAR:1,2011-04-02T12:24:00Z,28.1560,-82.7580,21.03,1111122 
COMPS,ioos:station:USF.COMPS:TAR:1,2011-04-02T12:30:00Z,28.1560,-82.7580,22.37,1111122 
COMPS,ioos:station:USF.COMPS:TAR:1,2011-04-02T12:36:00Z,28.1560,-82.7580,23.55,1111122 
COMPS,ioos:station:USF.COMPS:TAR:1,2011-04-02T12:42:00Z,28.1560,-82.7580,24.13,1111122 
COMPS,ioos:station:USF.COMPS:TAR:1,2011-04-02T12:48:00Z,28.1560,-82.7580,24.24,1111122 
COMPS,ioos:station:USF.COMPS:TAR:1,2011-04-02T12:54:00Z,28.1560,-82.7580,24.08,1111122 
COMPS,ioos:station:USF.COMPS:TAR:1,2011-04-02T15:00:00Z,28.1560,-82.7580,25.37,1111122 
COMPS,ioos:station:USF.COMPS:TAR:1,2011-04-02T15:06:00Z,28.1560,-82.7580,25.83,1111122 
COMPS,ioos:station:USF.COMPS:TAR:1,2011-04-02T15:12:00Z,28.1560,-82.7580,25.68,1111122 
COMPS,ioos:station:USF.COMPS:TAR:1,2011-04-02T15:18:00Z,28.1560,-82.7580,25.4,1111122 
COMPS,ioos:station:USF.COMPS:TAR:1,2011-04-02T15:24:00Z,28.1560,-82.7580,25.52,1111122 
COMPS,ioos:station:USF.COMPS:TAR:1,2011-04-02T15:30:00Z,28.1560,-82.7580,24.86,1111122 
COMPS,ioos:station:USF.COMPS:TAR:1,2011-04-02T15:36:00Z,28.1560,-82.7580,25.34,1111122 
COMPS,ioos:station:USF.COMPS:TAR:1,2011-04-02T15:42:00Z,28.1560,-82.7580,25.69,1111122 
COMPS,ioos:station:USF.COMPS:TAR:1,2011-04-02T15:48:00Z,28.1560,-82.7580,25.93,1111122 
COMPS,ioos:station:USF.COMPS:TAR:1,2011-04-02T15:54:00Z,28.1560,-82.7580,26.14,1111122 
COMPS,ioos:station:USF.COMPS:TAR:1,2011-04-02T17:00:00Z,28.1560,-82.7580,24.83,1111122 
COMPS,ioos:station:USF.COMPS:TAR:1,2011-04-02T17:06:00Z,28.1560,-82.7580,25.3,1111122 
COMPS,ioos:station:USF.COMPS:TAR:1,2011-04-02T17:12:00Z,28.1560,-82.7580,25.04,1111122 
COMPS,ioos:station:USF.COMPS:TAR:1,2011-04-02T17:18:00Z,28.1560,-82.7580,24.7,1111122 
COMPS,ioos:station:USF.COMPS:TAR:1,2011-04-02T17:24:00Z,28.1560,-82.7580,24.94,1111122 
COMPS,ioos:station:USF.COMPS:TAR:1,2011-04-02T17:30:00Z,28.1560,-82.7580,25.1,1111122 
COMPS,ioos:station:USF.COMPS:TAR:1,2011-04-02T17:36:00Z,28.1560,-82.7580,24.73,1111122 
COMPS,ioos:station:USF.COMPS:TAR:1,2011-04-02T17:42:00Z,28.1560,-82.7580,24.38,1111122 
COMPS,ioos:station:USF.COMPS:TAR:1,2011-04-02T17:48:00Z,28.1560,-82.7580,24.53,1111122 
COMPS,ioos:station:USF.COMPS:TAR:1,2011-04-02T17:54:00Z,28.1560,-82.7580,24.37,1111122 
COMPS,ioos:station:USF.COMPS:TAR:1,2011-04-02T20:00:00Z,28.1560,-82.7580,25.71,1111122 
COMPS,ioos:station:USF.COMPS:TAR:1,2011-04-02T20:06:00Z,28.1560,-82.7580,26.32,1111122 
COMPS,ioos:station:USF.COMPS:TAR:1,2011-04-02T20:12:00Z,28.1560,-82.7580,26.17,1111122 
COMPS,ioos:station:USF.COMPS:TAR:1,2011-04-02T20:18:00Z,28.1560,-82.7580,25.85,1111122 
COMPS,ioos:station:USF.COMPS:TAR:1,2011-04-02T20:24:00Z,28.1560,-82.7580,25.05,1111122 
COMPS,ioos:station:USF.COMPS:TAR:1,2011-04-02T20:30:00Z,28.1560,-82.7580,25.4,1111122 
COMPS,ioos:station:USF.COMPS:TAR:1,2011-04-02T20:36:00Z,28.1560,-82.7580,25.46,1111122 
COMPS,ioos:station:USF.COMPS:TAR:1,2011-04-02T20:42:00Z,28.1560,-82.7580,25.89,1111122 
COMPS,ioos:station:USF.COMPS:TAR:1,2011-04-02T20:48:00Z,28.1560,-82.7580,26.37,1111122 
COMPS,ioos:station:USF.COMPS:TAR:1,2011-04-02T20:54:00Z,28.1560,-82.7580,27.19,1111122 
COMPS,ioos:station:USF.COMPS:TAR:1,2011-04-02T23:00:00Z,28.1560,-82.7580,24.95,1111122 
COMPS,ioos:station:USF.COMPS:TAR:1,2011-04-02T23:06:00Z,28.1560,-82.7580,24.63,1111122 
COMPS,ioos:station:USF.COMPS:TAR:1,2011-04-02T23:12:00Z,28.1560,-82.7580,24.4,1111122 
COMPS,ioos:station:USF.COMPS:TAR:1,2011-04-02T23:18:00Z,28.1560,-82.7580,23.96,1111122 
COMPS,ioos:station:USF.COMPS:TAR:1,2011-04-02T23:24:00Z,28.1560,-82.7580,23.57,1111122 
COMPS,ioos:station:USF.COMPS:TAR:1,2011-04-02T23:30:00Z,28.1560,-82.7580,23.16,1111122 
COMPS,ioos:station:USF.COMPS:TAR:1,2011-04-02T23:36:00Z,28.1560,-82.7580,22.8,1111122 
COMPS,ioos:station:USF.COMPS:TAR:1,2011-04-02T23:42:00Z,28.1560,-82.7580,22.55,1111122 
COMPS,ioos:station:USF.COMPS:TAR:1,2011-04-02T23:48:00Z,28.1560,-82.7580,22.23,1111122 
COMPS,ioos:station:USF.COMPS:TAR:1,2011-04-02T23:54:00Z,28.1560,-82.7580,21.98,1111122 
COMPS,ioos:station:USF.COMPS:TAR:1,2011-04-03T02:00:00Z,28.1560,-82.7580,19.38,1111122 
COMPS,ioos:station:USF.COMPS:TAR:1,2011-04-03T02:06:00Z,28.1560,-82.7580,19.32,1111122 
COMPS,ioos:station:USF.COMPS:TAR:1,2011-04-03T02:12:00Z,28.1560,-82.7580,19.27,1111122 
COMPS,ioos:station:USF.COMPS:TAR:1,2011-04-03T02:18:00Z,28.1560,-82.7580,19.22,1111122 
COMPS,ioos:station:USF.COMPS:TAR:1,2011-04-03T02:24:00Z,28.1560,-82.7580,19.18,1111122 
COMPS,ioos:station:USF.COMPS:TAR:1,2011-04-03T02:30:00Z,28.1560,-82.7580,19.0,1111122 
COMPS,ioos:station:USF.COMPS:TAR:1,2011-04-03T02:36:00Z,28.1560,-82.7580,18.97,1111122 
COMPS,ioos:station:USF.COMPS:TAR:1,2011-04-03T02:42:00Z,28.1560,-82.7580,18.97,1111122 
COMPS,ioos:station:USF.COMPS:TAR:1,2011-04-03T02:48:00Z,28.1560,-82.7580,18.97,1111122 
COMPS,ioos:station:USF.COMPS:TAR:1,2011-04-03T02:54:00Z,28.1560,-82.7580,18.85,1111122 
COMPS,ioos:station:USF.COMPS:TAR:1,2011-04-03T05:00:00Z,28.1560,-82.7580,17.69,1111122 
COMPS,ioos:station:USF.COMPS:TAR:1,2011-04-03T05:06:00Z,28.1560,-82.7580,17.66,1111122 
COMPS,ioos:station:USF.COMPS:TAR:1,2011-04-03T05:12:00Z,28.1560,-82.7580,17.66,1111122 
COMPS,ioos:station:USF.COMPS:TAR:1,2011-04-03T05:18:00Z,28.1560,-82.7580,17.86,1111122 
COMPS,ioos:station:USF.COMPS:TAR:1,2011-04-03T05:24:00Z,28.1560,-82.7580,17.84,1111122 
COMPS,ioos:station:USF.COMPS:TAR:1,2011-04-03T05:30:00Z,28.1560,-82.7580,17.76,1111122 
COMPS,ioos:station:USF.COMPS:TAR:1,2011-04-03T05:36:00Z,28.1560,-82.7580,17.79,1111122 
COMPS,ioos:station:USF.COMPS:TAR:1,2011-04-03T05:42:00Z,28.1560,-82.7580,17.71,1111122 
COMPS,ioos:station:USF.COMPS:TAR:1,2011-04-03T05:48:00Z,28.1560,-82.7580,17.81,1111122 
COMPS,ioos:station:USF.COMPS:TAR:1,2011-04-03T05:54:00Z,28.1560,-82.7580,17.79,1111122 
COMPS,ioos:station:USF.COMPS:TAR:1,2011-04-03T08:00:00Z,28.1560,-82.7580,17.39,1111122 
COMPS,ioos:station:USF.COMPS:TAR:1,2011-04-03T08:06:00Z,28.1560,-82.7580,17.36,1111122 
COMPS,ioos:station:USF.COMPS:TAR:1,2011-04-03T08:12:00Z,28.1560,-82.7580,17.25,1111122 
COMPS,ioos:station:USF.COMPS:TAR:1,2011-04-03T08:18:00Z,28.1560,-82.7580,17.24,1111122 
COMPS,ioos:station:USF.COMPS:TAR:1,2011-04-03T08:24:00Z,28.1560,-82.7580,17.4,1111122 
COMPS,ioos:station:USF.COMPS:TAR:1,2011-04-03T08:30:00Z,28.1560,-82.7580,17.25,1111122 
COMPS,ioos:station:USF.COMPS:TAR:1,2011-04-03T08:36:00Z,28.1560,-82.7580,17.17,1111122 
COMPS,ioos:station:USF.COMPS:TAR:1,2011-04-03T08:42:00Z,28.1560,-82.7580,17.12,1111122 
COMPS,ioos:station:USF.COMPS:TAR:1,2011-04-03T08:48:00Z,28.1560,-82.7580,17.11,1111122 
COMPS,ioos:station:USF.COMPS:TAR:1,2011-04-03T08:54:00Z,28.1560,-82.7580,17.11,1111122 
COMPS,ioos:station:USF.COMPS:TAR:1,2011-04-03T11:00:00Z,28.1560,-82.7580,16.93,1111122 
COMPS,ioos:station:USF.COMPS:TAR:1,2011-04-03T11:06:00Z,28.1560,-82.7580,16.84,1111122 
COMPS,ioos:station:USF.COMPS:TAR:1,2011-04-03T11:12:00Z,28.1560,-82.7580,16.84,1111122 
COMPS,ioos:station:USF.COMPS:TAR:1,2011-04-03T11:18:00Z,28.1560,-82.7580,16.84,1111122 
COMPS,ioos:station:USF.COMPS:TAR:1,2011-04-03T11:24:00Z,28.1560,-82.7580,16.8,1111122 
COMPS,ioos:station:USF.COMPS:TAR:1,2011-04-03T11:30:00Z,28.1560,-82.7580,16.72,1111122 
COMPS,ioos:station:USF.COMPS:TAR:1,2011-04-03T11:36:00Z,28.1560,-82.7580,16.73,1111122 
COMPS,ioos:station:USF.COMPS:TAR:1,2011-04-03T11:42:00Z,28.1560,-82.7580,16.84,1111122 
COMPS,ioos:station:USF.COMPS:TAR:1,2011-04-03T11:48:00Z,28.1560,-82.7580,16.89,1111122 
COMPS,ioos:station:USF.COMPS:TAR:1,2011-04-03T11:54:00Z,28.1560,-82.7580,17.07,1111122 
COMPS,ioos:station:USF.COMPS:TAR:1,2011-04-03T14:00:00Z,28.1560,-82.7580,22.89,1111122 
COMPS,ioos:station:USF.COMPS:TAR:1,2011-04-03T14:06:00Z,28.1560,-82.7580,23.66,1111122 
COMPS,ioos:station:USF.COMPS:TAR:1,2011-04-03T14:12:00Z,28.1560,-82.7580,24.07,1111122 
COMPS,ioos:station:USF.COMPS:TAR:1,2011-04-03T14:18:00Z,28.1560,-82.7580,24.08,1111122 
COMPS,ioos:station:USF.COMPS:TAR:1,2011-04-03T14:24:00Z,28.1560,-82.7580,24.02,1111122 
COMPS,ioos:station:USF.COMPS:TAR:1,2011-04-03T14:30:00Z,28.1560,-82.7580,24.29,1111122 
COMPS,ioos:station:USF.COMPS:TAR:1,2011-04-03T14:36:00Z,28.1560,-82.7580,24.48,1111122 
COMPS,ioos:station:USF.COMPS:TAR:1,2011-04-03T14:42:00Z,28.1560,-82.7580,24.55,1111122 
COMPS,ioos:station:USF.COMPS:TAR:1,2011-04-03T14:48:00Z,28.1560,-82.7580,24.8,1111122 
COMPS,ioos:station:USF.COMPS:TAR:1,2011-04-03T14:54:00Z,28.1560,-82.7580,25.01,1111122 
COMPS,ioos:station:USF.COMPS:TAR:1,2011-04-03T17:00:00Z,28.1560,-82.7580,26.71,1111122 
COMPS,ioos:station:USF.COMPS:TAR:1,2011-04-03T17:06:00Z,28.1560,-82.7580,26.67,1111122 
COMPS,ioos:station:USF.COMPS:TAR:1,2011-04-03T17:12:00Z,28.1560,-82.7580,26.49,1111122 
COMPS,ioos:station:USF.COMPS:TAR:1,2011-04-03T17:18:00Z,28.1560,-82.7580,27.37,1111122 
COMPS,ioos:station:USF.COMPS:TAR:1,2011-04-03T17:24:00Z,28.1560,-82.7580,27.76,1111122 
COMPS,ioos:station:USF.COMPS:TAR:1,2011-04-03T17:30:00Z,28.1560,-82.7580,27.72,1111122 
COMPS,ioos:station:USF.COMPS:TAR:1,2011-04-03T17:36:00Z,28.1560,-82.7580,27.92,1111122 
COMPS,ioos:station:USF.COMPS:TAR:1,2011-04-03T17:42:00Z,28.1560,-82.7580,27.8,1111122 
COMPS,ioos:station:USF.COMPS:TAR:1,2011-04-03T17:48:00Z,28.1560,-82.7580,27.55,1111122 
COMPS,ioos:station:USF.COMPS:TAR:1,2011-04-03T17:54:00Z,28.1560,-82.7580,27.58,1111122 
COMPS,ioos:station:USF.COMPS:TAR:1,2011-04-03T20:00:00Z,28.1560,-82.7580,28.92,1111122 
COMPS,ioos:station:USF.COMPS:TAR:1,2011-04-03T20:06:00Z,28.1560,-82.7580,29.47,1111122 
COMPS,ioos:station:USF.COMPS:TAR:1,2011-04-03T20:12:00Z,28.1560,-82.7580,29.2,1111122 
COMPS,ioos:station:USF.COMPS:TAR:1,2011-04-03T20:18:00Z,28.1560,-82.7580,28.85,1111122 
COMPS,ioos:station:USF.COMPS:TAR:1,2011-04-03T20:24:00Z,28.1560,-82.7580,29.04,1111122 
COMPS,ioos:station:USF.COMPS:TAR:1,2011-04-03T20:30:00Z,28.1560,-82.7580,29.0,1111122 
COMPS,ioos:station:USF.COMPS:TAR:1,2011-04-03T20:36:00Z,28.1560,-82.7580,29.3,1111122 
COMPS,ioos:station:USF.COMPS:TAR:1,2011-04-03T20:42:00Z,28.1560,-82.7580,29.47,1111122 
COMPS,ioos:station:USF.COMPS:TAR:1,2011-04-03T20:48:00Z,28.1560,-82.7580,29.7,1111122 
COMPS,ioos:station:USF.COMPS:TAR:1,2011-04-03T20:54:00Z,28.1560,-82.7580,29.96,1111122 
COMPS,ioos:station:USF.COMPS:TAR:1,2011-04-03T23:00:00Z,28.1560,-82.7580,28.54,1111122 
COMPS,ioos:station:USF.COMPS:TAR:1,2011-04-03T23:06:00Z,28.1560,-82.7580,28.14,1111122 
COMPS,ioos:station:USF.COMPS:TAR:1,2011-04-03T23:12:00Z,28.1560,-82.7580,27.73,1111122 
COMPS,ioos:station:USF.COMPS:TAR:1,2011-04-03T23:18:00Z,28.1560,-82.7580,27.5,1111122 
COMPS,ioos:station:USF.COMPS:TAR:1,2011-04-03T23:24:00Z,28.1560,-82.7580,27.34,1111122 
COMPS,ioos:station:USF.COMPS:TAR:1,2011-04-03T23:30:00Z,28.1560,-82.7580,26.87,1111122 
COMPS,ioos:station:USF.COMPS:TAR:1,2011-04-03T23:36:00Z,28.1560,-82.7580,26.28,1111122 
COMPS,ioos:station:USF.COMPS:TAR:1,2011-04-03T23:42:00Z,28.1560,-82.7580,25.74,1111122 
COMPS,ioos:station:USF.COMPS:TAR:1,2011-04-03T23:48:00Z,28.1560,-82.7580,25.4,1111122 
COMPS,ioos:station:USF.COMPS:TAR:1,2011-04-03T23:54:00Z,28.1560,-82.7580,25.1,1111122 
COMPS,ioos:station:USF.COMPS:TAR:1,2011-04-04T02:00:00Z,28.1560,-82.7580,23.72,1111122 
COMPS,ioos:station:USF.COMPS:TAR:1,2011-04-04T02:06:00Z,28.1560,-82.7580,23.7,1111122 
COMPS,ioos:station:USF.COMPS:TAR:1,2011-04-04T02:12:00Z,28.1560,-82.7580,23.57,1111122 
COMPS,ioos:station:USF.COMPS:TAR:1,2011-04-04T02:18:00Z,28.1560,-82.7580,23.37,1111122 
COMPS,ioos:station:USF.COMPS:TAR:1,2011-04-04T02:24:00Z,28.1560,-82.7580,23.23,1111122 
COMPS,ioos:station:USF.COMPS:TAR:1,2011-04-04T02:30:00Z,28.1560,-82.7580,23.16,1111122 
COMPS,ioos:station:USF.COMPS:TAR:1,2011-04-04T02:36:00Z,28.1560,-82.7580,23.04,1111122 
COMPS,ioos:station:USF.COMPS:TAR:1,2011-04-04T02:42:00Z,28.1560,-82.7580,22.99,1111122 
COMPS,ioos:station:USF.COMPS:TAR:1,2011-04-04T02:48:00Z,28.1560,-82.7580,22.91,1111122 
COMPS,ioos:station:USF.COMPS:TAR:1,2011-04-04T02:54:00Z,28.1560,-82.7580,22.91,1111122 
COMPS,ioos:station:USF.COMPS:TAR:1,2011-04-04T05:00:00Z,28.1560,-82.7580,21.55,1111122 
COMPS,ioos:station:USF.COMPS:TAR:1,2011-04-04T05:06:00Z,28.1560,-82.7580,21.55,1111122 
COMPS,ioos:station:USF.COMPS:TAR:1,2011-04-04T05:12:00Z,28.1560,-82.7580,21.55,1111122 
COMPS,ioos:station:USF.COMPS:TAR:1,2011-04-04T05:18:00Z,28.1560,-82.7580,21.54,1111122 
COMPS,ioos:station:USF.COMPS:TAR:1,2011-04-04T05:24:00Z,28.1560,-82.7580,21.53,1111122 
COMPS,ioos:station:USF.COMPS:TAR:1,2011-04-04T05:30:00Z,28.1560,-82.7580,21.42,1111122 
COMPS,ioos:station:USF.COMPS:TAR:1,2011-04-04T05:36:00Z,28.1560,-82.7580,21.45,1111122 
COMPS,ioos:station:USF.COMPS:TAR:1,2011-04-04T05:42:00Z,28.1560,-82.7580,21.39,1111122 
COMPS,ioos:station:USF.COMPS:TAR:1,2011-04-04T05:48:00Z,28.1560,-82.7580,21.28,1111122 
COMPS,ioos:station:USF.COMPS:TAR:1,2011-04-04T05:54:00Z,28.1560,-82.7580,21.28,1111122 
COMPS,ioos:station:USF.COMPS:TAR:1,2011-04-04T08:00:00Z,28.1560,-82.7580,20.97,1111122 
COMPS,ioos:station:USF.COMPS:TAR:1,2011-04-04T08:06:00Z,28.1560,-82.7580,21.01,1111122 